CMB482 KFTK-MKJS

Flight info

Callsign CMB482
Flight time N/A
Altitude 41000
Route SWAPP Q79 KAILL Q118 THRSR Q79 DOFFY Q99 KPASA Q118 SHEEK Q110 JAYMC DCT ULBAS DCT SEKAM OMAXI7
Aircraft C700/M-SBDGHM1RWXY/LB2

Departure

Time 2026-05-07 20:34
Airport Godman Army Air Field (KFTK)

Arrival

Time N/A
Airport Sangster International Airport (MKJS)
Time Latitude Longitude Altitude Speed Heading
2026-05-07 20:14 37.90314 -85.96744 737 ft 0 kts 278°
2026-05-07 20:31 37.90314 -85.96764 737 ft 6 kts 265°
2026-05-07 20:31 37.90293 -85.96788 736 ft 5 kts 181°
2026-05-07 20:31 37.90264 -85.96797 736 ft 0 kts 200°
2026-05-07 20:32 37.90250 -85.96805 735 ft 5 kts 213°
2026-05-07 20:32 37.90211 -85.96862 735 ft 12 kts 231°
2026-05-07 20:32 37.90145 -85.96921 736 ft 13 kts 176°
2026-05-07 20:32 37.90037 -85.96914 735 ft 18 kts 174°
2026-05-07 20:33 37.89997 -85.96912 734 ft 0 kts 255°
2026-05-07 20:33 37.89997 -85.96914 734 ft 0 kts 266°
2026-05-07 20:33 37.90007 -85.96929 735 ft 2 kts 340°
2026-05-07 20:33 37.90009 -85.96928 735 ft 0 kts 356°
2026-05-07 20:34 37.90135 -85.96935 736 ft 55 kts 359°
2026-05-07 20:34 37.90810 -85.96984 745 ft 133 kts 355°
2026-05-07 20:34 37.91857 -85.96891 1225 ft 153 kts 358°
2026-05-07 20:34 37.92946 -85.96892 2207 ft 174 kts 355°
2026-05-07 20:35 37.94220 -85.96648 3036 ft 199 kts 28°
2026-05-07 20:35 37.94966 -85.95176 4193 ft 211 kts 80°
2026-05-07 20:35 37.94612 -85.93371 5416 ft 224 kts 122°
2026-05-07 20:35 37.93356 -85.92075 6373 ft 248 kts 158°
2026-05-07 20:36 37.91630 -85.91400 7233 ft 271 kts 165°
2026-05-07 20:36 37.89796 -85.90531 8260 ft 288 kts 158°
2026-05-07 20:36 37.87963 -85.89412 9637 ft 297 kts 158°
2026-05-07 20:36 37.86049 -85.88274 10725 ft 315 kts 161°
2026-05-07 20:37 37.83962 -85.87109 11708 ft 334 kts 162°
2026-05-07 20:37 37.81823 -85.85894 13147 ft 340 kts 162°
2026-05-07 20:37 37.79671 -85.84656 14356 ft 348 kts 163°
2026-05-07 20:37 37.77444 -85.83378 15505 ft 355 kts 163°
2026-05-07 20:38 37.75165 -85.82082 16617 ft 363 kts 163°
2026-05-07 20:38 37.72845 -85.80760 17729 ft 371 kts 164°
2026-05-07 20:38 37.70467 -85.79403 18751 ft 378 kts 164°
2026-05-07 20:38 37.68047 -85.78024 19695 ft 384 kts 165°
2026-05-07 20:39 37.65593 -85.76628 20558 ft 390 kts 165°
2026-05-07 20:39 37.63101 -85.75211 21441 ft 395 kts 166°
2026-05-07 20:39 37.60574 -85.73775 22305 ft 401 kts 166°
2026-05-07 20:39 37.58018 -85.72322 23153 ft 406 kts 167°
2026-05-07 20:40 37.55423 -85.70850 23969 ft 411 kts 167°
2026-05-07 20:40 37.52803 -85.69363 24727 ft 415 kts 167°
2026-05-07 20:40 37.50156 -85.67864 25472 ft 419 kts 168°
2026-05-07 20:40 37.47477 -85.66347 26195 ft 424 kts 168°
2026-05-07 20:41 37.44774 -85.64819 26904 ft 429 kts 168°
2026-05-07 20:41 37.42039 -85.63272 27598 ft 433 kts 168°
2026-05-07 20:41 37.41107 -85.62746 27818 ft 435 kts 168°
2026-05-07 20:41 37.39598 -85.61892 28192 ft 437 kts 168°
2026-05-07 20:42 37.37756 -85.60854 28636 ft 440 kts 168°
2026-05-07 20:42 37.34947 -85.59271 29308 ft 445 kts 169°
2026-05-07 20:42 37.32111 -85.57673 29996 ft 450 kts 169°
2026-05-07 20:42 37.29234 -85.56052 30562 ft 455 kts 169°
2026-05-07 20:43 37.26332 -85.54417 31102 ft 459 kts 170°
2026-05-07 20:43 37.23399 -85.52770 31607 ft 464 kts 171°
2026-05-07 20:43 37.20439 -85.51108 32098 ft 469 kts 171°
2026-05-07 20:43 37.17446 -85.49429 32602 ft 473 kts 171°
2026-05-07 20:44 37.14428 -85.47734 33100 ft 477 kts 172°
2026-05-07 20:44 37.11403 -85.46034 33743 ft 476 kts 172°
2026-05-07 20:44 37.08383 -85.44339 34386 ft 475 kts 173°
2026-05-07 20:44 37.05370 -85.42657 34950 ft 474 kts 173°
2026-05-07 20:45 37.02364 -85.40979 35503 ft 473 kts 173°
2026-05-07 20:45 36.99363 -85.39304 36033 ft 472 kts 173°
2026-05-07 20:45 36.96357 -85.37626 36527 ft 472 kts 173°
2026-05-07 20:45 36.93365 -85.35959 36987 ft 472 kts 173°
2026-05-07 20:46 36.90367 -85.34290 37440 ft 471 kts 173°
2026-05-07 20:46 36.87370 -85.32623 37876 ft 471 kts 174°
2026-05-07 20:46 36.84412 -85.31025 38253 ft 468 kts 178°
2026-05-07 20:46 36.81420 -85.29457 38560 ft 469 kts 178°
2026-05-07 20:47 36.78411 -85.27799 38811 ft 473 kts 177°
2026-05-07 20:47 36.75424 -85.26090 39059 ft 472 kts 177°
2026-05-07 20:47 36.72435 -85.24408 39307 ft 470 kts 177°
2026-05-07 20:47 36.69448 -85.22773 39516 ft 468 kts 178°
2026-05-07 20:48 36.66464 -85.21138 39730 ft 469 kts 177°
2026-05-07 20:48 36.63480 -85.19488 39969 ft 464 kts 178°
2026-05-07 20:48 36.60503 -85.18189 40250 ft 445 kts 186°
2026-05-07 20:48 36.57531 -85.17317 40392 ft 435 kts 191°
2026-05-07 20:49 36.54556 -85.16558 40488 ft 438 kts 189°
2026-05-07 20:49 36.51568 -85.15753 40694 ft 438 kts 189°
2026-05-07 20:49 36.48591 -85.14973 40863 ft 436 kts 190°
2026-05-07 20:49 36.45617 -85.14218 40990 ft 437 kts 190°
2026-05-07 20:50 36.42625 -85.13458 41002 ft 441 kts 189°
2026-05-07 20:50 36.36602 -85.11891 40999 ft 449 kts 189°
2026-05-07 20:51 36.30433 -85.10307 40998 ft 456 kts 189°
2026-05-07 20:51 36.24181 -85.08698 40995 ft 462 kts 189°
2026-05-07 20:52 36.17832 -85.07064 41000 ft 468 kts 189°
2026-05-07 20:52 36.11419 -85.05421 40998 ft 473 kts 188°
2026-05-07 20:53 36.04941 -85.03761 40996 ft 478 kts 188°
2026-05-07 20:53 35.98407 -85.02086 40997 ft 480 kts 188°
2026-05-07 20:54 35.91895 -85.00418 40998 ft 475 kts 188°
2026-05-07 20:54 35.85437 -84.98772 41000 ft 473 kts 188°
2026-05-07 20:55 35.79006 -84.97140 40991 ft 476 kts 188°
2026-05-07 20:55 35.72496 -84.95482 40987 ft 478 kts 188°
2026-05-07 20:56 35.65960 -84.93824 40975 ft 478 kts 188°
2026-05-07 20:56 35.59469 -84.92174 40973 ft 475 kts 188°
2026-05-07 20:57 35.52980 -84.90538 40974 ft 476 kts 188°
2026-05-07 20:57 35.46486 -84.88889 40965 ft 477 kts 188°
2026-05-07 20:58 35.39991 -84.87251 40959 ft 476 kts 188°
2026-05-07 20:58 35.33563 -84.85626 40954 ft 473 kts 188°
2026-05-07 20:59 35.27112 -84.84002 40954 ft 472 kts 188°
2026-05-07 20:59 35.20693 -84.82386 40952 ft 470 kts 188°
2026-05-07 21:00 35.14295 -84.80784 40950 ft 470 kts 188°
2026-05-07 21:00 35.07879 -84.79177 40954 ft 472 kts 188°
2026-05-07 21:01 35.01477 -84.77575 40958 ft 473 kts 187°
2026-05-07 21:01 34.95010 -84.75960 40966 ft 473 kts 187°
2026-05-07 21:02 34.88576 -84.74349 40970 ft 470 kts 188°
2026-05-07 21:02 34.82196 -84.72763 40966 ft 467 kts 188°
2026-05-07 21:03 34.75817 -84.71181 40970 ft 469 kts 188°
2026-05-07 21:03 34.69408 -84.69588 40965 ft 470 kts 187°
2026-05-07 21:04 34.63028 -84.68008 40971 ft 470 kts 187°
2026-05-07 21:04 34.56622 -84.66417 40955 ft 468 kts 188°
2026-05-07 21:05 34.50284 -84.64733 40960 ft 466 kts 187°
2026-05-07 21:05 34.43922 -84.63087 40961 ft 469 kts 187°
2026-05-07 21:06 34.37515 -84.61408 40963 ft 473 kts 186°
2026-05-07 21:06 34.31102 -84.59733 40964 ft 470 kts 187°
2026-05-07 21:07 34.24730 -84.58074 40966 ft 467 kts 187°
2026-05-07 21:07 34.18371 -84.56424 40965 ft 467 kts 187°
2026-05-07 21:08 34.12027 -84.54781 40966 ft 471 kts 186°
2026-05-07 21:08 34.05611 -84.53119 40970 ft 473 kts 186°
2026-05-07 21:09 33.99163 -84.51596 40970 ft 472 kts 188°
2026-05-07 21:09 33.92705 -84.50159 40947 ft 471 kts 182°
2026-05-07 21:10 33.86269 -84.48527 40981 ft 469 kts 184°
2026-05-07 21:10 33.79834 -84.47298 40990 ft 471 kts 183°
2026-05-07 21:11 33.73373 -84.45764 40994 ft 473 kts 183°
2026-05-07 21:11 33.63669 -84.43657 40979 ft 477 kts 180°
2026-05-07 21:12 33.60438 -84.42529 40979 ft 488 kts 174°
2026-05-07 21:12 33.57222 -84.41204 40975 ft 488 kts 174°
2026-05-07 21:12 33.50840 -84.38657 40993 ft 486 kts 174°
2026-05-07 21:13 33.44379 -84.36057 41003 ft 486 kts 174°
2026-05-07 21:13 33.38009 -84.33509 41002 ft 485 kts 174°
2026-05-07 21:14 33.31605 -84.30946 41000 ft 485 kts 174°
2026-05-07 21:14 33.25205 -84.28392 40991 ft 484 kts 174°
2026-05-07 21:15 33.18815 -84.25844 40972 ft 485 kts 174°
2026-05-07 21:15 33.12389 -84.23288 40959 ft 488 kts 174°
2026-05-07 21:16 33.05926 -84.20718 40963 ft 490 kts 174°
2026-05-07 21:16 32.99464 -84.18150 40965 ft 487 kts 174°
2026-05-07 21:17 32.93044 -84.15609 40964 ft 485 kts 174°
2026-05-07 21:17 32.86676 -84.13090 40960 ft 486 kts 174°
2026-05-07 21:18 32.80239 -84.10549 40952 ft 489 kts 174°
2026-05-07 21:18 32.73756 -84.07989 40942 ft 490 kts 174°
2026-05-07 21:19 32.67291 -84.05442 40935 ft 489 kts 174°